Dewpoint
44 46 47 46 46 47 48 49 48 48 48 48 48 47 47 47 46 46 46 47 46 45 45 45 46 47 43 38 26 27 34 33 24 16 14 18 16 15 14 14 14 15 30 38 44 37 34
45 45 45 44 43 43 45 47 47 48 48 48 48 48 48 47 47 47 47 47 47 46 46 46 46 48 42 19 29 26 25 26 16 14 14 17 12 14 14 14 12 32 35 37 36 34 33
42 42 43 43 43 42 41 42 44 46 45 46 46 47 47 47 47 47 47 48 47 47 47 47 47 47 37 18 32 18 24 15 15 13 10 11 14 17 19 15 31 32 30 31 30 31 32
37 38 38 38 39 39 38 40 41 42 44 44 44 45 45 46 46 47 48 48 48 48 47 48 49 45 21 31 30 23 23 13 8 8 8 10 20 19 19 23 28 29 30 29 30 30 30
39 37 38 37 37 36 34 39 38 40 42 43 43 43 44 46 46 47 47 47 47 47 49 49 43 37 16 31 30 26 25 14 10 8 8 12 19 18 19 23 26 25 26 28 29 29 29
35 35 35 36 38 40 38 36 35 40 41 41 42 43 43 45 46 47 47 45 46 47 44 45 38 29 26 22 17 19 16 10 8 8 8 14 17 18 18 22 22 22 25 27 27 28 28
36 36 35 35 34 34 34 39 37 36 38 39 40 42 42 43 44 45 44 43 37 34 31 20 19 22 21 27 17 13 14 8 10 8 8 16 14 15 15 19 22 25 25 25 27 29 28
37 37 35 35 35 34 33 34 38 38 36 36 37 38 40 41 42 43 45 42 38 41 39 39 36 30 26 22 15 6 10 7 8 7 10 12 12 15 17 18 21 23 24 24 26 28 27
37 37 36 36 33 34 35 34 37 38 36 36 35 37 38 40 41 42 38 40 42 44 39 37 36 33 27 19 15 7 8 9 8 8 9 11 10 12 16 17 19 19 20 21 25 27 27
35 38 37 36 35 34 35 35 35 38 38 37 37 36 38 40 38 39 39 41 43 45 23 18 30 28 24 19 12 13 8 8 8 7 11 10 12 11 13 14 17 16 18 20 25 25 23
36 36 37 36 36 34 36 34 36 37 37 37 38 37 36 37 36 39 41 40 43 43 -19 -2 17 25 21 12 11 10 11 8 7 9 11 10 10 11 11 12 15 16 19 21 25 24 24
36 35 36 36 36 36 35 34 35 36 36 37 37 38 36 36 35 36 39 41 43 21 -14 8 13 19 15 11 8 7 10 9 9 8 11 11 13 12 11 12 15 19 23 24 23 23 21
32 35 35 35 35 35 34 34 35 36 36 37 38 38 37 36 30 36 39 40 25 14 14 16 11 13 9 7 7 7 6 7 6 6 8 10 12 13 13 11 22 23 22 21 22 25 24
31 31 34 35 34 34 34 34 35 36 36 37 39 40 35 35 35 37 39 34 18 13 19 17 13 8 4 5 6 7 8 6 7 13 11 10 8 13 14 11 21 23 23 24 21 20 20
34 31 31 33 34 34 34 34 35 36 37 38 39 35 33 33 37 39 37 24 19 24 25 23 13 6 3 6 6 6 9 7 7 10 12 12 11 13 13 15 23 21 21 24 17 20 16
31 33 31 33 33 34 34 33 34 36 37 38 36 34 34 36 37 41 32 23 26 27 25 25 15 17 5 4 6 7 8 11 9 10 15 15 11 13 13 14 15 21 22 18 20 13 13
29 31 31 31 33 33 33 33 33 36 37 37 31 30 34 39 39 35 26 23 24 25 24 24 22 16 22 12 6 9 6 10 11 10 15 14 16 13 13 13 11 17 18 23 21 19 13
32 30 32 31 32 33 33 33 33 35 37 35 28 20 35 35 32 33 29 24 23 19 22 24 25 19 20 19 21 7 8 7 15 12 12 14 17 11 12 15 17 19 18 22 16 18 22
30 29 31 31 32 32 32 34 34 35 36 35 26 25 32 38 27 26 28 28 27 26 23 20 23 25 24 21 18 21 12 13 17 15 13 18 18 12 13 16 17 15 18 24 25 23 20
29 32 30 30 31 32 32 33 34 35 36 34 27 21 25 34 35 27 26 28 29 28 26 23 18 20 24 21 23 22 19 18 20 15 20 18 19 13 11 13 16 14 16 28 22 17 20
30 30 31 30 30 32 31 31 33 35 36 33 28 22 30 22 21 22 24 27 25 24 29 27 22 22 22 20 21 22 23 21 20 22 21 19 14 18 17 16 15 14 14 26 22 21 17
30 30 32 30 29 30 30 31 31 34 36 32 26 27 28 26 24 20 22 24 27 27 31 26 24 24 24 22 21 22 26 26 20 20 19 23 16 18 18 17 15 13 14 15 24 25 21
29 31 31 31 29 30 30 31 30 32 36 29 31 33 29 23 22 22 21 25 25 29 29 29 28 27 24 24 26 26 27 28 28 27 20 18 19 15 13 19 18 15 15 14 13 21 24
29 31 30 30 31 30 30 30 30 31 35 33 32 32 27 20 21 20 20 21 23 19 25 30 29 28 28 30 28 27 26 27 26 25 25 22 20 20 15 16 13 17 19 18 15 13 18
29 31 30 29 29 30 30 30 30 30 33 34 34 32 28 20 22 22 20 21 21 25 25 27 29 31 33 29 22 22 23 22 21 23 25 24 22 20 14 14 16 18 16 16 15 15 16
29 29 29 32 30 30 31 32 31 30 32 34 34 35 31 24 17 25 22 25 24 25 24 27 30 33 34 26 23 21 19 24 20 21 25 26 25 17 21 13 11 16 18 20 15 11 15
28 29 32 34 34 33 32 32 32 31 31 35 34 35 32 25 24 26 21 22 29 27 25 27 25 31 35 27 22 22 22 25 19 18 20 22 24 19 21 15 18 22 18 18 12 13 17
29 31 33 34 35 35 35 34 33 33 31 33 31 34 33 27 25 26 27 28 27 27 23 24 23 29 27 27 25 24 23 22 20 19 20 21 18 20 23 19 16 22 19 14 17 18 20
28 28 31 34 35 34 35 36 35 33 33 32 31 35 36 30 28 31 31 30 27 24 26 28 24 27 28 24 24 25 22 23 21 16 20 19 23 20 22 22 24 23 18 21 28 20 22
Wind_Speed
16 17 17 19 20 21 21 17 16 16 16 18 15 17 18 19 21 22 22 22 24 24 23 21 18 16 6 2 10 7 12 8 6 6 6 5 3 2 4 3 4 9 3 8 14 22 22
16 16 17 18 19 20 21 21 20 20 18 18 18 18 18 20 22 24 24 24 24 25 23 20 16 13 0 8 7 13 15 7 8 6 4 6 6 3 7 6 3 8 17 24 16 22 19
18 19 20 20 19 19 19 21 22 20 19 20 21 21 21 22 24 25 27 26 26 25 24 19 12 5 4 19 1 5 10 10 8 7 8 8 8 7 3 3 18 19 20 20 11 8 27
16 18 18 18 19 17 18 20 21 21 22 21 21 22 23 24 26 27 27 29 29 28 23 15 7 4 10 8 10 16 13 13 9 10 6 6 4 3 3 2 6 11 10 12 7 13 13
17 18 18 16 16 17 18 19 20 22 22 22 23 23 23 25 27 28 30 32 34 22 9 3 4 4 12 13 7 15 16 16 10 7 3 6 3 2 2 10 8 3 15 13 10 7 8
18 17 19 20 20 20 18 18 19 21 22 23 24 23 24 26 28 30 33 37 23 7 3 6 6 3 10 8 6 9 12 9 5 8 2 1 2 3 1 11 19 11 14 7 15 16 10
15 16 17 18 18 19 20 21 20 20 22 23 25 25 26 27 30 32 27 9 5 3 3 10 9 6 5 6 3 9 12 7 4 7 9 6 6 17 19 11 13 15 11 11 8 12 10
16 15 16 17 18 20 20 21 22 20 22 23 23 26 27 29 31 32 13 4 4 4 11 15 26 24 28 11 5 11 12 11 7 12 10 2 18 19 11 11 16 20 21 13 2 15 9
18 16 16 17 20 20 21 22 22 20 21 22 23 25 28 31 34 11 9 8 9 11 6 11 14 14 14 10 9 16 16 10 8 12 17 13 7 13 10 10 15 13 19 14 16 12 9
20 21 15 17 18 20 20 22 22 23 22 23 24 25 26 31 5 13 4 18 19 4 4 8 11 12 10 10 8 13 16 13 6 20 12 13 20 13 16 13 15 20 14 15 23 23 13
18 18 19 18 18 20 20 22 23 23 24 25 25 24 25 21 12 7 8 21 17 1 5 5 8 8 20 16 8 17 11 13 18 12 12 14 14 21 16 24 17 19 14 21 27 20 12
21 20 20 20 20 20 22 23 24 23 24 25 26 25 26 11 10 13 15 21 1 3 11 6 10 11 14 16 8 2 16 12 8 14 9 18 6 17 25 22 21 20 18 18 11 6 14
21 22 20 19 20 20 21 23 24 25 25 26 28 27 25 11 7 6 15 6 4 8 7 3 9 13 19 16 18 6 22 24 17 16 17 14 19 13 9 10 13 24 27 6 4 5 11
19 20 21 21 20 21 21 23 24 25 27 27 30 28 11 11 12 8 6 4 8 5 11 9 5 13 16 13 19 13 14 23 21 6 10 14 11 20 7 8 13 27 20 14 10 10 8
21 20 21 22 21 21 22 23 24 26 28 29 28 8 9 8 9 6 2 11 9 6 8 12 12 7 9 12 9 19 8 25 23 22 11 15 10 5 9 5 19 7 21 20 8 2 7
21 21 21 22 21 21 22 23 25 26 29 31 16 8 8 10 6 3 4 9 6 6 16 10 5 4 13 14 11 15 8 14 15 19 14 4 13 10 8 5 4 16 15 14 2 11 7
22 22 19 22 22 21 22 23 24 25 28 26 6 7 3 15 4 2 5 6 11 9 18 10 9 8 6 2 17 9 11 9 24 20 16 13 5 8 10 10 13 6 11 5 7 6 11
22 20 19 20 21 20 21 22 23 24 26 11 6 6 2 13 2 3 5 4 7 24 7 9 9 10 5 13 6 16 11 11 17 18 15 16 2 12 18 8 14 6 10 10 20 10 1
21 20 19 18 20 20 21 22 22 23 23 8 13 5 6 4 2 5 5 7 9 18 12 7 8 5 15 7 6 7 11 13 9 6 15 11 6 8 7 2 1 8 6 8 10 5 14
21 19 19 17 19 19 20 22 22 22 21 7 6 6 6 5 4 10 10 6 5 14 16 15 12 16 11 7 2 9 10 3 7 9 6 10 9 18 24 16 8 14 11 13 11 13 11
20 19 18 16 17 18 19 20 22 22 20 5 4 3 4 8 11 14 9 6 10 9 7 9 4 7 7 5 11 6 10 9 2 3 7 8 9 11 14 19 13 10 12 14 15 11 17
19 17 17 14 15 16 18 18 20 22 19 3 4 4 6 8 9 11 4 6 13 15 5 10 11 16 11 8 6 12 8 7 4 4 7 4 8 7 12 15 18 19 18 17 17 13 10
19 16 16 14 16 16 15 16 17 19 11 3 4 2 2 7 7 7 5 11 16 20 12 12 13 14 10 8 14 13 8 7 5 6 3 8 9 10 14 13 8 13 22 19 16 14 19
19 15 14 15 15 14 15 15 15 16 12 3 2 4 3 8 7 7 17 13 15 19 17 19 16 9 8 22 16 5 5 5 11 16 8 8 11 5 8 10 17 9 14 20 20 22 18
19 15 15 16 16 15 14 13 13 14 14 5 5 2 3 6 9 10 19 17 18 14 11 13 12 11 19 12 3 4 3 5 4 9 8 6 8 6 10 14 3 2 5 10 12 18 20
19 17 17 17 17 16 14 13 12 13 13 4 6 5 4 4 5 7 13 10 8 11 11 7 15 18 11 3 3 5 6 3 4 3 4 5 7 10 6 12 23 6 5 5 5 19 12
20 19 20 19 16 15 15 13 12 12 12 4 4 5 3 6 6 2 4 8 7 6 7 7 17 12 14 5 4 4 5 4 5 6 7 8 5 18 8 9 6 7 18 5 14 5 8
19 19 20 19 16 15 16 16 13 12 11 5 6 6 3 5 11 9 4 5 4 5 5 10 12 7 8 3 3 5 6 5 4 5 6 10 11 9 5 10 15 7 4 11 5 7 7
21 20 20 19 17 16 16 15 16 13 11 6 4 1 3 6 9 10 21 21 16 23 9 2 3 4 3 5 6 7 4 2 7 8 4 12 7 8 13 11 5 8 15 3 4 8 7
Wind_Direction
13 20 23 21 18 15 15 3 356 350 343 348 328 333 334 336 335 332 328 323 321 318 317 318 321 324 355 281 253 233 179 187 173 184 204 206 255 216 240 206 158 213 98 110 145 120 111
24 21 21 18 12 6 8 9 7 7 3 355 349 346 340 336 332 329 325 319 315 311 311 310 314 319 115 257 243 185 177 174 210 195 214 194 237 256 277 267 214 107 112 112 113 114 123
16 19 22 18 12 6 356 351 357 357 355 353 354 352 346 339 332 326 321 316 312 306 303 300 300 288 245 238 307 154 179 200 197 201 249 263 272 216 325 311 125 116 96 91 79 117 123
11 9 4 5 359 356 355 353 352 344 346 345 343 341 337 332 328 324 320 315 308 301 298 287 261 220 252 246 254 260 252 260 233 230 208 282 301 168 199 121 88 113 112 122 162 144 169
19 17 15 9 3 358 351 348 347 349 349 343 337 334 333 330 326 324 322 315 305 301 266 191 140 191 263 306 212 234 206 218 232 241 260 276 29 216 325 134 126 39 161 125 155 203 138
5 4 2 2 6 6 1 354 347 349 351 349 345 337 332 330 327 325 323 313 295 286 211 151 260 264 254 234 202 196 192 191 189 211 223 191 30 220 195 167 178 175 153 141 153 192 144
8 5 2 4 359 352 349 355 354 346 343 344 343 344 340 333 327 325 329 343 1 45 229 208 198 236 296 255 233 203 199 187 153 172 178 189 195 207 208 192 158 154 160 151 175 186 133
5 2 359 355 357 355 352 347 346 347 347 338 336 338 334 331 324 319 319 340 43 251 297 261 258 262 271 285 301 187 155 176 177 197 183 183 225 224 216 200 179 166 176 182 135 153 112
-0 357 355 353 354 350 350 348 342 344 344 341 339 333 330 328 319 321 315 358 342 358 258 276 221 231 236 174 226 210 166 168 184 198 204 203 231 215 212 207 191 194 183 178 174 138 66
355 352 350 350 350 349 349 347 341 343 342 341 337 335 334 335 2 337 312 346 334 360 295 267 204 223 193 197 255 197 181 174 205 207 199 226 241 227 221 227 204 219 201 197 168 157 183
354 355 355 354 351 345 344 347 342 339 339 335 334 329 330 334 288 304 321 330 319 98 259 228 194 190 172 173 159 205 166 185 200 193 179 217 197 213 221 224 210 221 192 192 168 166 142
358 355 350 353 350 350 350 345 340 338 334 331 329 325 325 328 312 252 317 314 61 106 238 295 167 160 154 181 199 135 177 177 193 218 239 238 233 194 219 226 205 213 157 157 155 142 200
351 353 351 349 348 348 346 343 339 338 335 329 325 320 314 280 252 312 330 350 134 211 311 277 174 169 175 181 200 190 176 189 189 192 230 255 254 239 180 181 157 146 140 127 175 204 225
351 347 349 348 346 345 344 342 341 340 336 330 324 316 284 249 253 277 325 178 210 235 261 313 321 172 181 166 210 193 191 196 214 165 187 203 212 206 171 178 165 150 158 160 175 193 215
348 348 347 346 345 343 344 343 343 341 338 331 327 309 299 262 235 187 229 201 217 225 4 344 325 167 193 198 177 204 225 200 201 198 195 186 223 182 171 147 152 194 182 159 141 116 183
346 348 349 345 344 343 344 345 342 343 339 335 326 328 304 275 173 175 204 223 257 349 350 336 332 5 193 198 194 187 213 198 195 197 207 294 193 193 159 143 201 175 161 168 140 177 198
341 342 347 344 343 344 346 344 343 345 341 338 346 338 297 8 129 185 224 260 296 297 343 338 337 322 345 280 211 198 202 225 194 206 186 216 211 199 166 183 190 154 171 136 132 149 204
341 341 344 345 342 345 345 344 345 345 347 1 357 324 321 339 220 201 208 203 253 287 319 302 284 290 340 357 320 223 228 202 189 201 188 211 207 196 199 190 180 161 167 149 182 195 106
341 336 341 345 341 344 346 348 351 346 351 335 332 285 308 144 223 255 285 273 265 288 294 274 323 4 335 300 318 342 234 215 149 165 204 173 197 188 178 142 130 157 155 138 117 131 194
334 342 340 343 341 343 346 350 356 350 350 1 345 335 323 12 36 7 0 301 319 309 278 255 251 294 304 326 319 305 321 277 163 176 155 174 177 201 205 194 158 173 173 166 165 195 186
339 338 333 340 339 341 345 352 356 353 350 5 9 310 337 327 332 329 350 288 308 323 305 325 267 232 304 303 326 15 2 329 36 144 134 173 201 186 192 184 178 181 182 179 190 185 198
331 329 336 335 336 338 341 348 352 354 350 32 340 347 339 291 309 342 342 306 5 344 297 300 320 320 297 267 273 309 345 8 331 321 151 151 202 145 178 179 190 214 215 192 200 186 196
327 330 336 334 334 334 337 345 348 353 12 354 332 307 292 297 327 347 356 339 320 337 300 271 341 330 300 327 304 253 243 256 273 311 211 155 149 163 169 144 132 223 220 208 214 193 199
325 323 320 324 328 330 333 337 339 345 5 313 289 301 296 300 312 313 317 320 323 320 298 292 307 306 323 325 313 298 308 304 296 312 229 158 148 150 161 133 208 238 200 206 210 232 211
321 316 317 315 313 318 321 326 327 332 342 342 309 294 314 293 302 311 346 320 312 325 320 289 359 313 301 300 302 305 325 337 284 273 237 161 147 142 186 198 255 209 179 181 191 234 227
314 310 308 309 305 306 308 311 319 324 330 354 293 245 260 287 273 335 316 333 341 337 329 327 337 328 358 293 209 216 202 177 203 266 165 148 162 183 164 206 225 169 184 138 154 243 228
311 309 309 308 306 299 299 297 302 309 318 342 285 312 259 268 272 9 306 295 295 324 300 315 337 345 8 326 192 197 234 224 208 203 168 161 174 202 173 210 261 244 216 160 221 220 236
309 308 307 306 304 303 301 298 289 291 302 328 294 297 258 279 275 263 275 263 277 281 327 320 347 9 353 264 210 208 211 235 253 222 197 183 171 197 163 211 240 227 208 216 213 222 235
305 304 307 307 308 306 304 292 287 279 281 298 277 185 335 266 272 285 266 259 247 244 247 295 270 302 339 358 3 313 292 262 204 212 204 241 212 187 196 209 217 202 220 292 217 216 218